x

Gooses Reef, Md (44062) Weather Station

1:50pm - Fri 29th Aug 2014 All times are EDT. -4 hours from GMT.

  • Wind
    7mph, 11mph gusts
  • Air Temp 71°f
  • Sea Pressure 1022.6mb
  • Gooses Reef, Md
  • Gooses Reef, Md

More Historic Weather Station data

Upgrade to MSW Pro to gain access to the past 30 days of data for over 8000 Wavebouys and Weather Stations around the globe.

Join Pro

Comparision Forecast

View Surf forecast
   
Fri 08/29 1:50pm  -   -  7 11 mph 1022.6mb - 71f
1:40pm  -   -  7 9 mph 1022.7mb - 71f
1:30pm  -   -  4 7 mph 1022.9mb - 70f
1:20pm  -   -  4 7 mph 1022.9mb - 70f
1:10pm  -   -  4 7 mph 1023mb - 70f
1:00pm 0.7ft  -  4 7 mph 1023mb 79f 70f
12:50pm  -   -  4 7 mph 1023mb - 70f
12:40pm  -   -  4 7 mph 1023.1mb - 70f
12:30pm  -   -  4 7 mph 1023.2mb - 70f
12:20pm  -   -  4 7 mph 1023.3mb - 69f
12:10pm  -   -  4 9 mph 1023.3mb - 69f
12:00pm 1ft 2s 4 7 mph 1023.3mb 78f 69f
11:50am  -   -  7 9 mph 1023.3mb - 69f
11:40am  -   -  7 9 mph 1023.2mb - 69f
11:30am  -   -  4 9 mph 1023.3mb - 69f
11:20am  -   -  7 9 mph 1023.2mb - 69f
11:10am  -   -  7 9 mph 1023.2mb - 69f
11:00am 1ft 2s 7 9 mph 1023.3mb 77f 69f
10:50am  -   -  7 11 mph 1023.3mb - 69f
10:40am  -   -  9 11 mph 1023.3mb - 69f
10:30am  -   -  9 11 mph 1023.3mb - 69f
10:20am  -   -  7 11 mph 1023.2mb - 68f
10:10am  -   -  7 11 mph 1023.1mb - 68f
10:00am 1.3ft 2s 9 11 mph 1023.1mb 77f 68f
9:50am  -   -  9 11 mph 1023.1mb - 68f
9:40am  -   -  9 11 mph 1023mb - 68f
9:30am  -   -  9 13 mph 1023mb - 68f
9:20am  -   -  11 13 mph 1022.9mb - 68f
9:10am  -   -  11 13 mph 1022.7mb - 68f
9:00am 1.6ft 2s 11 13 mph 1022.5mb 77f 68f
8:50am  -   -  11 13 mph 1022.5mb - 68f
8:40am  -   -  11 13 mph 1022.4mb - 68f
8:30am  -   -  11 13 mph 1022.4mb - 69f
8:20am  -   -  11 16 mph 1022.2mb - 69f
8:10am  -   -  13 16 mph 1022.2mb - 69f
8:00am 1.3ft 3s 13 16 mph 1022.1mb 77f 69f
7:50am  -   -  13 18 mph 1022.1mb - 69f
7:40am  -   -  13 16 mph 1022.1mb - 69f
7:30am  -   -  11 16 mph 1022.1mb - 69f
7:20am  -   -  11 16 mph 1021.9mb - 69f
7:10am  -   -  13 16 mph 1021.8mb - 69f
7:00am 1.6ft 3s 13 16 mph 1021.8mb 77f 69f
6:50am  -   -  13 16 mph 1021.6mb - 68f
6:40am  -   -  13 16 mph 1021.5mb - 68f
6:30am  -   -  13 18 mph 1021.3mb - 68f
6:20am  -   -  13 18 mph 1021.1mb - 68f
6:10am  -   -  13 18 mph 1021mb - 69f
6:00am 1.6ft 3s 16 18 mph 1020.8mb 77f 69f
5:50am  -   -  13 16 mph 1020.8mb - 69f
5:40am  -   -  13 18 mph 1020.6mb - 69f
5:30am  -   -  13 18 mph 1020.6mb - 69f
5:20am  -   -  13 18 mph 1020.6mb - 69f
5:10am  -   -  13 18 mph 1020.6mb - 69f
5:00am 1.6ft 3s 13 16 mph 1020.5mb 77f 69f
4:50am  -   -  13 18 mph 1020.5mb - 69f
4:40am  -   -  16 20 mph 1020.4mb - 69f
4:30am  -   -  16 20 mph 1020.3mb - 70f
4:20am  -   -  16 20 mph 1020.2mb - 70f
4:10am  -   -  16 25 mph 1020.1mb - 70f
4:00am 2.5ft 3s 16 20 mph 1020mb 77f 70f
3:50am  -   -  16 20 mph 1019.9mb - 70f
3:40am  -   -  16 20 mph 1019.8mb - 70f
3:30am  -   -  18 22 mph 1019.8mb - 70f
3:20am  -   -  20 25 mph 1019.7mb - 71f
3:10am  -   -  20 25 mph 1019.7mb - 71f
3:00am 1.3ft 2s 18 22 mph 1019.6mb 77f 71f
2:50am  -   -  20 22 mph 1019.5mb - 72f
2:40am  -   -  20 25 mph 1019.3mb - 73f
2:30am  -   -  13 25 mph 1019.2mb - 74f
2:20am  -   -  9 11 mph 1019.1mb - 75f
2:10am  -   -  9 11 mph 1019.1mb - 75f
2:00am 0.7ft  -  9 11 mph 1019.1mb 78f 75f
1:50am  -   -  9 11 mph 1019.1mb - 75f
1:40am  -   -  9 11 mph 1019.2mb - 75f
1:30am  -   -  9
mph
1019.3mb - 75f
1:20am  -   -  9 11 mph 1019.2mb - 75f
1:10am  -   -  9 11 mph 1019.2mb - 75f
1:00am 1ft 2s 9 11 mph 1019.2mb 78f 75f
12:50am  -   -  9 11 mph 1019.2mb - 75f
12:40am  -   -  9 11 mph 1019.2mb - 75f
12:30am  -   -  9 11 mph 1019.1mb - 75f
12:20am  -   -  9 11 mph 1019.1mb - 75f
12:10am  -   -  9 11 mph 1019.1mb - 75f
12:00am 1.6ft 3s 9 13 mph 1019mb 78f 75f
Thu 08/28 11:50pm  -   -  11 13 mph 1018.9mb - 75f
11:40pm  -   -  11 13 mph 1018.9mb - 75f
11:30pm  -   -  11 13 mph 1018.8mb - 75f
11:20pm  -   -  13 16 mph 1018.7mb - 75f
11:10pm  -   -  16 18 mph 1018.5mb - 76f
11:00pm 1.6ft 3s 16 18 mph 1018.4mb 78f 76f
10:50pm  -   -  16 18 mph 1018.3mb - 76f
10:40pm  -   -  16 22 mph 1018.3mb - 77f
10:30pm  -   -  18 20 mph 1018.2mb - 78f
10:20pm  -   -  16 20 mph 1018.1mb - 78f
10:10pm  -   -  18 20 mph 1017.9mb - 78f
10:00pm 1.3ft 2s 16 20 mph 1017.8mb 78f 78f
9:50pm  -   -  16 20 mph 1017.6mb - 78f
9:40pm  -   -  16 20 mph 1017.5mb - 78f
9:30pm  -   -  13 18 mph 1017.4mb - 78f
9:20pm  -   -  13 18 mph 1017.2mb - 79f
9:10pm  -   -  13
mph
1017.1mb - 79f
9:00pm 1.6ft 3s 13 16 mph 1016.9mb 78f 79f
8:50pm  -   -  13 16 mph 1016.7mb - 79f
8:40pm  -   -  16 18 mph 1016.5mb - 80f
8:30pm  -   -  16 18 mph 1016.4mb - 79f
8:20pm  -   -  16 18 mph 1016.2mb - 80f
8:10pm  -   -  16 18 mph 1016mb - 80f
8:00pm 1.3ft 2s 16 18 mph 1015.9mb 78f 80f
7:50pm  -   -  16 18 mph 1015.8mb - 80f
7:40pm  -   -  13 16 mph 1015.7mb - 80f
7:30pm  -   -  13 16 mph 1015.6mb - 80f
7:20pm  -   -  13 16 mph 1015.6mb - 80f
7:10pm  -   -  11 13 mph 1015.6mb - 80f
7:00pm 1.3ft 2s 7 11 mph 1015.5mb 78f 80f
6:50pm  -   -  9 11 mph 1015.5mb - 80f
6:40pm  -   -  7 9 mph 1015.4mb - 81f
6:30pm  -   -  9 11 mph 1015.4mb - 81f
6:20pm  -   -  11 13 mph 1015.4mb - 80f
6:10pm  -   -  11 13 mph 1015.3mb - 80f
6:00pm 1.6ft 3s 13 16 mph 1015.2mb 79f 80f
5:50pm  -   -  13 18 mph 1015mb - 80f
5:40pm  -   -  18 20 mph 1015mb - 80f
5:30pm  -   -  18 20 mph 1014.8mb - 80f
5:20pm  -   -  18 20 mph 1014.7mb - 80f
5:10pm  -   -  18 20 mph 1014.6mb - 80f
5:00pm 1ft 2s 16 20 mph 1014.5mb 79f 81f
4:50pm  -   -  11 18 mph 1014.5mb - 80f
4:40pm  -   -  11 16 mph 1014.5mb - 80f
4:30pm  -   -  11 13 mph 1014.5mb - 80f
4:20pm  -   -  11 13 mph 1014.4mb - 80f
4:10pm  -   -  11
mph
1014.4mb - 79f
4:00pm 1ft 2s 11 13 mph 1014.5mb 79f 79f
3:50pm  -   -  9 11 mph 1014.5mb - 79f
3:40pm  -   -  9 11 mph 1014.4mb - 79f
3:30pm  -   -  9 11 mph 1014.3mb - 79f
3:20pm  -   -  11
mph
1014.4mb - 79f
3:10pm  -   -  11 13 mph 1014.4mb - 79f
3:00pm 1ft 2s 11
mph
1014.4mb 79f 78f
2:50pm  -   -  11
mph
1014.5mb - 78f
2:40pm  -   -  9 11 mph 1014.6mb - 78f
2:30pm  -   -  9 11 mph 1014.7mb - 78f
2:20pm  -   -  11 13 mph 1014.7mb - 78f
2:10pm  -   -  11 13 mph 1014.8mb - 78f
2:00pm 1ft 2s 9 11 mph 1014.9mb 79f 78f
1:50pm  -   -  11 13 mph 1014.9mb - 78f
1:40pm  -   -  11 13 mph 1014.9mb - 77f
1:30pm  -   -  11 13 mph 1014.8mb - 77f
1:20pm  -   -  9 11 mph 1014.8mb - 77f
1:10pm  -   -  11 13 mph 1014.9mb - 77f
1:00pm 1.3ft 2s 11 16 mph 1015mb 78f 77f
12:50pm  -   -  11 16 mph 1015mb - 77f
12:40pm  -   -  11 13 mph 1015mb - 77f
12:30pm  -   -  11 13 mph 1015mb - 77f
12:20pm  -   -  11 13 mph 1015.1mb - 77f
12:10pm  -   -  11 13 mph 1015.3mb - 77f
12:00pm 1.3ft 2s 11 16 mph 1015.3mb 78f 76f
11:50am  -   -  11 16 mph 1015.3mb - 76f
11:40am  -   -  11 13 mph 1015.3mb - 76f
11:30am  -   -  13 16 mph 1015.3mb - 76f
11:20am  -   -  13 16 mph 1015.3mb - 76f
11:10am  -   -  13 16 mph 1015.3mb - 76f
11:00am 1.6ft 3s 13 16 mph 1015.4mb 78f 75f
10:50am  -   -  13 16 mph 1015.4mb - 75f
10:40am  -   -  16
mph
1015.4mb - 75f
10:30am  -   -  16 18 mph 1015.3mb - 75f
10:20am  -   -  16 18 mph 1015.4mb - 75f
10:10am  -   -  16 18 mph 1015.4mb - 75f
10:00am 2ft 3s 16 18 mph 1015.3mb 78f 75f
9:50am  -   -  18 20 mph 1015.2mb - 76f
9:40am  -   -  18 22 mph 1015.1mb - 76f
9:30am  -   -  20 22 mph 1015mb - 76f
9:20am  -   -  18 22 mph 1014.8mb - 76f
9:10am  -   -  18 22 mph 1014.8mb - 76f
9:00am 2.5ft 3s 20 22 mph 1014.8mb 78f 76f
8:50am  -   -  20 22 mph 1014.7mb - 76f
8:40am  -   -  18 22 mph 1014.7mb - 76f
8:30am  -   -  18 22 mph 1014.7mb - 77f
8:20am  -   -  20 22 mph 1014.5mb - 77f
8:10am  -   -  20 22 mph 1014.4mb - 77f
8:00am 2ft 3s 18 22 mph 1014.3mb 78f 77f
7:50am  -   -  18 22 mph 1014.1mb - 77f
7:40am  -   -  18 20 mph 1014mb - 77f
7:30am  -   -  18 22 mph 1014mb - 77f
7:20am  -   -  16 20 mph 1013.9mb - 77f
7:10am  -   -  16 18 mph 1013.9mb - 76f
7:00am 2ft 3s 16 18 mph 1013.7mb 78f 76f
6:50am  -   -  16 20 mph 1013.6mb - 78f
6:40am  -   -  18 20 mph 1013.4mb - 78f
6:30am  -   -  18 22 mph 1013.1mb - 78f
6:20am  -   -  18 22 mph 1012.9mb - 78f
6:10am  -   -  16 20 mph 1012.8mb - 78f
6:00am 1.6ft 2s 16 20 mph 1012.6mb 78f 78f
5:50am  -   -  18 20 mph 1012.5mb - 78f
5:40am  -   -  18 22 mph 1012.4mb - 78f
5:30am  -   -  18 20 mph 1012.3mb - 78f
5:20am  -   -  16 18 mph 1012.2mb - 78f
5:10am  -   -  16 18 mph 1012mb - 78f
5:00am 1.6ft 2s 16 18 mph 1011.9mb 78f 77f
4:50am  -   -  16 18 mph 1011.8mb - 78f
4:40am  -   -  16 18 mph 1011.7mb - 78f
4:30am  -   -  18 20 mph 1011.7mb - 78f
4:20am  -   -  18 22 mph 1011.5mb - 78f
4:10am  -   -  16 20 mph 1011.6mb - 78f
4:00am 1.3ft 2s 16 18 mph 1011.5mb 78f 78f
3:50am  -   -  16 18 mph 1011.5mb - 78f
3:40am  -   -  16 20 mph 1011.4mb - 78f
3:30am  -   -  16 20 mph 1011.4mb - 78f
3:20am  -   -  16 18 mph 1011.5mb - 78f
3:10am  -   -  13 18 mph 1011.5mb - 79f
3:00am 0.7ft  -  11 16 mph 1011.5mb 78f 79f
2:50am  -   -  9 11 mph 1011.6mb - 79f
2:40am  -   -  11 13 mph 1011.7mb - 79f
2:30am  -   -  11 13 mph 1011.7mb - 79f
2:20am  -   -  11 16 mph 1011.7mb - 79f
2:10am  -   -  9 13 mph 1011.9mb - 79f
2:00am 0.7ft  -  7 9 mph 1012.1mb 78f 79f
1:50am  -   -  9 13 mph 1012.2mb - 79f
1:40am  -   -  11 13 mph 1012.2mb - 79f
1:30am  -   -  11 13 mph 1012.3mb - 79f
1:20am  -   -  11 13 mph 1012.5mb - 78f
1:10am  -   -  11 13 mph 1012.6mb - 78f
1:00am 0.7ft  -  11 13 mph 1012.7mb 78f 78f
12:50am  -   -  9 11 mph 1012.8mb - 78f
12:40am  -   -  9 11 mph 1012.8mb - 79f
12:30am  -   -  9 11 mph 1013mb - 79f
12:20am  -   -  9 11 mph 1013.1mb - 79f
12:10am  -   -  7 11 mph 1013.1mb - 79f
12:00am 0.3ft  -  7 9 mph 1013.1mb 77f 79f
Wed 08/27 11:50pm  -   -  7 9 mph 1013.2mb - 78f
11:40pm  -   -  9
mph
1013.3mb - 78f
11:30pm  -   -  9
mph
1013mb - 79f
11:20pm  -   -  7 9 mph 1013.1mb - 79f
11:10pm  -   -  7 9 mph 1013.2mb - 79f
11:00pm 0.3ft  -  7 9 mph 1013.3mb 78f 79f
10:50pm  -   -  7 9 mph 1013.3mb - 79f
10:40pm  -   -  7 9 mph 1013.4mb - 79f
10:30pm  -   -  7
mph
1013.5mb - 79f
10:20pm  -   -  7
mph
1013.5mb - 79f
10:10pm  -   -  4 7 mph 1013.6mb - 79f
10:00pm 0.3ft  -  4 7 mph 1013.6mb 78f 79f
9:50pm  -   -  4 7 mph 1013.6mb - 79f
9:40pm  -   -  4 7 mph 1013.7mb - 79f
9:30pm  -   -  4 7 mph 1013.8mb - 79f
9:20pm  -   -  4 7 mph 1013.7mb - 80f
9:10pm  -   -  4 7 mph 1013.6mb - 80f
9:00pm 0.3ft  -  7
mph
1013.4mb 78f 80f
8:50pm  -   -  7
mph
1013.4mb - 80f
8:40pm  -   -  7
mph
1013.3mb - 80f
8:30pm  -   -  7 9 mph 1013.5mb - 80f
8:20pm  -   -  9
mph
1013.5mb - 80f
8:10pm  -   -  9 11 mph 1013.5mb - 80f
8:00pm 0.3ft  -  9 11 mph 1013.4mb 78f 81f
7:50pm  -   -  9 11 mph 1013.4mb - 81f
7:40pm  -   -  9 11 mph 1013.4mb - 81f
7:30pm  -   -  9 11 mph 1013.4mb - 81f
7:20pm  -   -  9
mph
1013.5mb - 81f
7:10pm  -   -  7 9 mph 1013.5mb - 81f
7:00pm 0.3ft  -  7
mph
1013.7mb 80f 82f
6:50pm  -   -  7
mph
1013.7mb - 82f
6:30pm  -   -  4 7 mph 1013.9mb - 82f
6:20pm  -   -  4
mph
1014.1mb - 82f
6:10pm  -   -  4
mph
1014.1mb - 82f
6:00pm 0.3ft  -  4
mph
1014.2mb 81f 82f
5:50pm  -   -  4
mph
1014.4mb - 82f
5:40pm  -   -  4
mph
1014.4mb - 82f
5:30pm  -   -  4
mph
1014.4mb - 82f
5:20pm  -   -  4
mph
1014.5mb - 82f
5:10pm  -   -  2 4 mph 1014.6mb - 82f
5:00pm 0.3ft  -  2 4 mph 1014.6mb 83f 82f
4:50pm  -   -  2 4 mph 1014.7mb - 82f
4:40pm  -   -  2 4 mph 1014.7mb - 82f
4:30pm  -   -  2 4 mph 1014.7mb - 82f
4:20pm  -   -  2
mph
1014.7mb - 81f
4:10pm  -   -  2
mph
1014.9mb - 81f
4:00pm 0.3ft  -   -  2 mph 1014.9mb 82f 81f
3:50pm  -   -  2
mph
1015.1mb - 81f
3:40pm  -   -  2
mph
1015.3mb - 81f
3:30pm  -   -  2 4 mph 1015.4mb - 81f
3:20pm  -   -  4
mph
1015.5mb - 80f
3:10pm  -   -  4
mph
1015.6mb - 80f
3:00pm 0.3ft  -  4
mph
1015.7mb 82f 80f
2:50pm  -   -  4
mph
1015.9mb - 80f
2:40pm  -   -  4
mph
1016.1mb - 80f
2:30pm  -   -  4
mph
1016.2mb - 80f
2:20pm  -   -  2 4 mph 1016.4mb - 79f
2:10pm  -   -  2 4 mph 1016.5mb - 79f
2:00pm 0.3ft  -  2 4 mph 1016.6mb 82f 79f
1:50pm  -   -  2 4 mph 1016.9mb - 79f
1:40pm  -   -   -  2 mph 1016.9mb - 79f
1:30pm  -   -   -  2 mph 1017.1mb - 78f
1:20pm  -   -   -  2 mph 1017.3mb - 78f
1:10pm  -   -  2
mph
1017.3mb - 78f
1:00pm 0.3ft  -  2
mph
1017.5mb 80f 78f
12:50pm  -   -  2
mph
1017.6mb - 78f
12:40pm  -   -   -  4 mph 1017.8mb - 77f
12:30pm  -   -  2
mph
1017.9mb - 77f
12:20pm  -   -   -  2 mph 1018.1mb - 77f
12:10pm  -   -   -  2 mph 1018.2mb - 76f
12:00pm 0.3ft  -  2
mph
1018.3mb 79f 76f
11:50am  -   -  2 4 mph 1018.5mb - 76f
11:40am  -   -  2 4 mph 1018.5mb - 76f
11:30am  -   -  2 4 mph 1018.6mb - 75f
11:20am  -   -   -  2 mph 1018.7mb - 75f
11:10am  -   -  2
mph
1018.7mb - 75f
11:00am 0.3ft  -   -  2 mph 1018.8mb 78f 75f
10:50am  -   -  2
mph
1018.8mb - 75f
10:40am  -   -  2 4 mph 1018.9mb - 74f
10:30am  -   -  4 7 mph 1018.9mb - 74f
10:20am  -   -  7 9 mph 1019mb - 74f
10:10am  -   -  4 7 mph 1019.1mb - 74f
10:00am 0.3ft  -  4 7 mph 1019.1mb 78f 74f
9:50am  -   -  4 7 mph 1019.1mb - 74f
9:40am  -   -  7 9 mph 1019.1mb - 74f
9:30am  -   -  4 7 mph 1019.1mb - 74f
9:20am  -   -  4 7 mph 1019.2mb - 74f
9:10am  -   -  4 7 mph 1019mb - 74f
9:00am 0.3ft  -  4 7 mph 1019.1mb 77f 74f
8:50am  -   -  4 7 mph 1019.3mb - 74f
8:40am  -   -  4 7 mph 1019.2mb - 74f
8:30am  -   -  4 7 mph 1019.2mb - 73f
8:20am  -   -  4 7 mph 1019.3mb - 73f
8:10am  -   -  4 7 mph 1019.2mb - 73f
8:00am 0.3ft  -  4 7 mph 1019.2mb 77f 73f
7:50am  -   -  4 7 mph 1019mb - 73f
7:40am  -   -  4 7 mph 1019mb - 73f
7:30am  -   -  4 7 mph 1019mb - 73f
7:20am  -   -  4 7 mph 1018.9mb - 73f
7:10am  -   -  4 7 mph 1018.9mb - 73f
7:00am 0.3ft  -  4 7 mph 1018.8mb 77f 73f
6:50am  -   -  4 7 mph 1018.8mb - 72f
6:40am  -   -  4 7 mph 1018.7mb - 72f
6:30am  -   -  4
mph
1018.6mb - 72f
6:20am  -   -  4 7 mph 1018.5mb - 72f
6:10am  -   -  7
mph
1018.4mb - 73f
6:00am 0.3ft  -  4 7 mph 1018.3mb 78f 73f
5:50am  -   -  4
mph
1018.2mb - 73f
5:40am  -   -  4
mph
1018.1mb - 73f
5:30am  -   -  4 7 mph 1018.1mb - 73f
5:20am  -   -  4
mph
1018.1mb - 73f
5:10am  -   -  2 4 mph 1018.2mb - 72f
5:00am 0.3ft  -  2 4 mph 1018.1mb 77f 72f
4:50am  -   -  2
mph
1018mb - 72f
4:40am  -   -  2 4 mph 1017.9mb - 72f
4:30am  -   -  4
mph
1017.9mb - 72f
4:20am  -   -  4
mph
1018mb - 72f
4:10am  -   -  4
mph
1018mb - 73f
4:00am 0.3ft  -  4
mph
1018mb 77f 73f
3:50am  -   -  4 7 mph 1018.1mb - 73f
3:40am  -   -  4 7 mph 1018.1mb - 73f
3:30am  -   -  7
mph
1017.9mb - 73f
3:20am  -   -  4 7 mph 1018mb - 74f
3:10am  -   -  4 7 mph 1018.1mb - 74f
3:00am 0.7ft  -  4
mph
1018mb 77f 74f
2:50am  -   -  4
mph
1018mb - 74f
2:40am  -   -  4 7 mph 1018mb - 74f
2:30am  -   -  4 7 mph 1018mb - 74f
2:20am  -   -  4
mph
1018.2mb - 74f
2:10am  -   -  4
mph
1018.1mb - 74f
2:00am 0.7ft  -  4 7 mph 1018.1mb 77f 74f
1:50am  -   -  4 7 mph 1018.2mb - 74f
1:40am  -   -  4 7 mph 1018.3mb - 74f
1:30am  -   -  4 7 mph 1018.5mb - 74f
1:20am  -   -  4 7 mph 1018.7mb - 74f
1:10am  -   -  4 7 mph 1018.8mb - 74f
1:00am 1ft 3s 4 7 mph 1018.9mb 77f 74f
12:50am  -   -  4 7 mph 1019mb - 74f
12:40am  -   -  4 7 mph 1019.1mb - 74f
12:30am  -   -  7
mph
1019.1mb - 74f
12:20am  -   -  7
mph
1019.3mb - 74f
12:10am  -   -  7 9 mph 1019.3mb - 74f
12:00am 1.3ft 3s 7 9 mph 1019.6mb 77f 74f
Tue 08/26 11:50pm  -   -  9
mph
1019.7mb - 74f
11:40pm  -   -  9 11 mph 1019.9mb - 74f
11:30pm  -   -  9 11 mph 1020mb - 74f
11:20pm  -   -  9 11 mph 1020.1mb - 74f
11:10pm  -   -  9 11 mph 1020mb - 74f
11:00pm 1.3ft 2s 9 11 mph 1020.1mb 78f 74f
10:50pm  -   -  11 13 mph 1020.1mb - 74f
10:40pm  -   -  11 13 mph 1020.2mb - 74f
10:30pm  -   -  11 13 mph 1020.3mb - 75f
10:20pm  -   -  13 16 mph 1020.4mb - 75f
10:10pm  -   -  13 18 mph 1020.3mb - 76f
10:00pm 0.7ft  -  13 18 mph 1020.3mb 78f 77f
9:50pm  -   -  11 13 mph 1020.3mb - 77f
9:40pm  -   -  11 13 mph 1020.4mb - 78f
9:30pm  -   -  11 13 mph 1020.4mb - 78f
9:20pm  -   -  9 11 mph 1020.3mb - 78f
9:10pm  -   -  11 13 mph 1020.2mb - 79f
9:00pm 0.3ft  -  9 11 mph 1020.1mb 78f 79f
8:50pm  -   -  9 11 mph 1019.9mb - 79f
8:40pm  -   -  7 9 mph 1019.8mb - 79f
8:30pm  -   -  4
mph
1019.7mb - 80f
8:20pm  -   -  2 4 mph 1019.7mb - 80f
8:10pm  -   -  2 9 mph 1019.5mb - 80f
8:00pm 0.7ft  -   -  2 mph 1019.5mb 78f 80f
7:50pm  -   -  2 4 mph 1019.6mb - 80f
7:40pm  -   -  2
mph
1019.6mb - 80f
7:30pm  -   -  4 7 mph 1019.5mb - 80f
7:20pm  -   -  4 7 mph 1019.5mb - 80f
7:10pm  -   -  4 7 mph 1019.4mb - 80f
7:00pm 0.7ft  -  4 7 mph 1019.2mb 78f 80f
6:50pm  -   -  7
mph
1019.1mb - 80f
6:40pm  -   -  7
mph
1019.2mb - 80f
6:30pm  -   -  7
mph
1019.3mb - 80f
6:20pm  -   -  9
mph
1019.3mb - 80f
6:10pm  -   -  9
mph
1019.4mb - 80f
6:00pm 1ft 2s 9 11 mph 1019.4mb 78f 80f
5:50pm  -   -  9 11 mph 1019.4mb - 80f
5:40pm  -   -  11 13 mph 1019.5mb - 80f
5:30pm  -   -  9 11 mph 1019.3mb - 80f
5:20pm  -   -  9 11 mph 1019.3mb - 80f
5:10pm  -   -  11 13 mph 1019.4mb - 80f
5:00pm 1ft 2s 11 13 mph 1019.4mb 78f 80f
4:50pm  -   -  11 13 mph 1019.5mb - 80f
4:40pm  -   -  11 13 mph 1019.5mb - 80f
4:30pm  -   -  11 13 mph 1019.6mb - 80f
4:20pm  -   -  11 13 mph 1019.6mb - 80f
4:10pm  -   -  11 13 mph 1019.7mb - 79f
4:00pm 1ft 2s 11 13 mph 1019.9mb 78f 79f
3:50pm  -   -  11 13 mph 1020mb - 79f
3:40pm  -   -  11 13 mph 1020.2mb - 79f
3:30pm  -   -  11 13 mph 1020.3mb - 79f
3:20pm  -   -  11 13 mph 1020.4mb - 79f
3:10pm  -   -  11 13 mph 1020.5mb - 79f
3:00pm 1ft 2s 11 13 mph 1020.6mb 78f 79f
2:50pm  -   -  11 13 mph 1020.8mb - 78f
2:40pm  -   -  11 13 mph 1020.9mb - 78f
2:30pm  -   -  11 13 mph 1021mb - 78f
2:20pm  -   -  11 13 mph 1021.1mb - 78f
2:10pm  -   -  11 13 mph 1021.1mb - 77f
2:00pm 1ft 2s 11 13 mph 1021.2mb 78f 77f
1:50pm  -   -  11 13 mph 1021.3mb - 77f
1:40pm  -   -  11 13 mph 1021.3mb - 77f
1:30pm  -   -  11 13 mph 1021.4mb - 77f
1:20pm  -   -  11 13 mph 1021.5mb - 76f
1:10pm  -   -  11 13 mph 1021.5mb - 76f
1:00pm 1ft 2s 11 13 mph 1021.6mb 78f 76f
12:50pm  -   -  11 13 mph 1021.7mb - 76f
12:40pm  -   -  11 13 mph 1021.7mb - 76f
12:30pm  -   -  11 13 mph 1021.8mb - 76f
12:20pm  -   -  11 13 mph 1021.9mb - 76f
12:10pm  -   -  11 13 mph 1021.9mb - 76f
12:00pm 1ft 2s 9 11 mph 1021.9mb 77f 76f
11:50am  -   -  9 11 mph 1021.9mb - 76f
11:40am  -   -  9 11 mph 1021.9mb - 75f
11:30am  -   -  9 11 mph 1021.9mb - 75f
11:20am  -   -  9 11 mph 1021.9mb - 75f
11:00am 1ft 2s 9 11 mph 1022mb 77f 75f
10:50am  -   -  11 13 mph 1022mb - 75f
10:40am  -   -  9 11 mph 1021.9mb - 75f
10:30am  -   -  9 11 mph 1021.8mb - 75f
10:20am  -   -  11
mph
1021.8mb - 75f
10:10am  -   -  11 13 mph 1021.7mb - 75f
10:00am 1ft 2s 11 13 mph 1021.8mb 77f 75f
9:50am  -   -  11 13 mph 1021.8mb - 75f
9:40am  -   -  11 16 mph 1021.6mb - 75f
9:30am  -   -  11 13 mph 1021.6mb - 75f
9:20am  -   -  11 13 mph 1021.7mb - 75f
9:10am  -   -  9 13 mph 1021.6mb - 75f
9:00am 1ft 2s 9 11 mph 1021.6mb 77f 75f
8:50am  -   -  9 11 mph 1021.7mb - 75f
8:40am  -   -  9
mph
1021.7mb - 74f
8:30am  -   -  9 11 mph 1021.7mb - 74f
8:20am  -   -  9
mph
1021.7mb - 74f
8:10am  -   -  9 11 mph 1021.7mb - 75f
8:00am 1.3ft 2s 11 13 mph 1021.6mb 77f 75f
7:50am  -   -  11 13 mph 1021.6mb - 75f
7:40am  -   -  11 13 mph 1021.5mb - 75f
7:30am  -   -  11 13 mph 1021.5mb - 75f
7:20am  -   -  11 13 mph 1021.4mb - 74f
7:10am  -   -  11 13 mph 1021.4mb - 74f
7:00am 1ft 2s 9 11 mph 1021.4mb 77f 74f
6:50am  -   -  11 13 mph 1021.3mb - 74f
6:40am  -   -  11 13 mph 1021.2mb - 74f
6:30am  -   -  11 13 mph 1021.1mb - 74f
6:20am  -   -  9 11 mph 1021mb - 74f
6:10am  -   -  9 11 mph 1020.9mb - 74f
6:00am 0.7ft  -  9
mph
1020.8mb 77f 74f
5:50am  -   -  9 11 mph 1020.8mb - 74f
5:40am  -   -  9 11 mph 1020.8mb - 74f
5:30am  -   -  9 11 mph 1020.7mb - 74f
5:20am  -   -  9
mph
1020.5mb - 74f
5:10am  -   -  7 9 mph 1020.5mb - 74f
5:00am 0.3ft  -  7 9 mph 1020.5mb 77f 74f
4:50am  -   -  7 9 mph 1020.5mb - 74f
4:40am  -   -  7 9 mph 1020.3mb - 74f
4:30am  -   -  7 9 mph 1020.3mb - 74f
4:20am  -   -  7 9 mph 1020.3mb - 74f
4:10am  -   -  7 9 mph 1020.4mb - 74f
4:00am 0.3ft  -  7 9 mph 1020.4mb 77f 74f
3:50am  -   -  7
mph
1020.5mb - 74f
3:40am  -   -  7 9 mph 1020.5mb - 74f
3:30am  -   -  7 9 mph 1020.5mb - 74f
3:20am  -   -  7
mph
1020.6mb - 74f
3:10am  -   -  7 9 mph 1020.7mb - 74f
3:00am 0.3ft  -  7 9 mph 1020.7mb 77f 74f
2:50am  -   -  7
mph
1020.6mb - 74f
2:40am  -   -  4 7 mph 1020.6mb - 74f
2:30am  -   -  4 7 mph 1020.5mb - 74f
2:20am  -   -  4 7 mph 1020.4mb - 74f
2:10am  -   -  4
mph
1020.4mb - 74f
2:00am 0.3ft  -  4
mph
1020.4mb 77f 74f
1:50am  -   -  4 7 mph 1020.6mb - 74f
1:40am  -   -  7
mph
1020.7mb - 74f
1:30am  -   -  7 9 mph 1020.8mb - 74f
1:20am  -   -   -  2 mph 1020.9mb - 76f
1:10am  -   -  2
mph
1021mb - 76f
1:00am 0.3ft  -  2
mph
1021mb 77f 76f
12:50am  -   -   -  2 mph 1020.9mb - 76f
12:40am  -   -  2
mph
1020.9mb - 76f
12:30am  -   -  2
mph
1020.8mb - 76f
12:20am  -   -  2
mph
1020.9mb - 76f
12:10am  -   -   -  2 mph 1020.8mb - 76f
12:00am 0.3ft  -   -  mph 1020.9mb 77f 76f
Mon 08/25 11:50pm  -   -   -  mph 1020.9mb - 76f
11:40pm  -   -   -  mph 1021mb - 76f
11:30pm  -   -   -  mph 1021mb - 76f
11:20pm  -   -   -  2 mph 1021.1mb - 76f
11:10pm  -   -  2
mph
1021mb - 76f
11:00pm 0.3ft  -  2
mph
1021mb 77f 76f
10:50pm  -   -  2 4 mph 1021mb - 76f
10:40pm  -   -  4
mph
1021mb - 76f
10:30pm  -   -  4
mph
1021.1mb - 76f
10:20pm  -   -  4 7 mph 1021.1mb - 76f
10:10pm  -   -  4 7 mph 1021mb - 76f
10:00pm 0.3ft  -  4 7 mph 1021.1mb 77f 76f
9:50pm  -   -  4 7 mph 1021.3mb - 76f
9:40pm  -   -  4 7 mph 1021.3mb - 76f
9:30pm  -   -  4 7 mph 1021.2mb - 77f
9:20pm  -   -  7 9 mph 1021.1mb - 77f
9:10pm  -   -  9 11 mph 1020.9mb - 77f
9:00pm 1ft 2s 9
mph
1020.8mb 77f 77f
8:50pm  -   -  7 9 mph 1020.9mb - 77f
8:40pm  -   -  7 9 mph 1020.9mb - 77f
8:30pm  -   -  9 11 mph 1021mb - 77f
8:20pm  -   -  11 13 mph 1020.9mb - 77f
8:10pm  -   -  11
mph
1020.9mb - 78f
8:00pm 1ft 2s 11
mph
1020.9mb 77f 78f
7:50pm  -   -  9 11 mph 1021mb - 78f
7:40pm  -   -  11 13 mph 1020.9mb - 78f
7:30pm  -   -  11 13 mph 1020.8mb - 78f
7:20pm  -   -  11 16 mph 1020.7mb - 78f
7:10pm  -   -  11 16 mph 1020.6mb - 78f
7:00pm 1ft 2s 11 16 mph 1020.6mb 78f 78f
6:50pm  -   -  11 13 mph 1020.6mb - 79f
6:40pm  -   -  11 13 mph 1020.6mb - 79f